Hourly Data Report for October 22, 2014

All times are specified in Local Standard Time (LST). Add 1 hour to adjust for Daylight Saving Time where and when it is observed.

ARVIAT A
NUNAVUT

61°05'38.000" N
94°04'18.000" W
10.40 m
2300427
71174
YEK

Download Data

Hourly Data (October 2014)
Hourly Data Report for October 22, 2014
Temp Definition
°C
Dew Point Temp Definition
°C
Rel Hum Definition
%
Wind Dir Definition
10's deg

Wind Spd Definition
km/h
Visibility Definition
km
Stn Press Definition
kPa
Hmdx Definition


Wind Chill Definition


Weather Definition


TIME
00:00 Legend Double Dagger 0.9 0.9 100 25 11 12.9 100.02     LegendNANA
01:00 Legend Double Dagger 0.7 0.7 100 21 9 12.9 100.09     LegendNANA
02:00 Legend Double Dagger 0.9 0.9 100 28 5 16.1 100.11     LegendNANA
03:00 Legend Double Dagger 0.9 0.9 100 31 5 16.1 100.17     LegendNANA
04:00 Legend Double Dagger 0.9 0.9 100 34 8 8.1 100.18     Rain,Fog
05:00 Legend Double Dagger 0.9 0.9 100 32 9 4.8 100.25     Rain,Fog
06:00 Legend Double Dagger 1.0 1.0 100 33 8 16.1 100.29     LegendNANA
07:00 Legend Double Dagger 0.8 0.8 100 33 8 0.8 100.38     Fog
08:00 Legend Double Dagger 0.8 0.8 100 34 11 0.6 100.44     Fog
09:00 Legend Double Dagger 1.0 1.0 100 36 11 0.6 100.50     Fog
10:00 Legend Double Dagger 1.0 1.0 100 34 13 1.2 100.57     Fog
11:00 Legend Double Dagger 1.3 1.3 100 34 15 16.1 100.62     LegendNANA
12:00 Legend Double Dagger 1.6 1.6 100 33 13 16.1 100.67     LegendNANA
13:00 Legend Double Dagger 1.7 1.7 100 33 18 16.1 100.74     LegendNANA
14:00 Legend Double Dagger 1.7 1.7 100 35 17 16.1 100.78     LegendNANA
15:00 Legend Double Dagger 1.7 1.6 99 35 15 16.1 100.83     LegendNANA
16:00 Legend Double Dagger 1.6 1.3 98 35 17 16.1 100.90     LegendNANA
17:00 Legend Double Dagger 1.5 0.9 96 36 18 16.1 100.96     LegendNANA
18:00 Legend Double Dagger 1.1 0.7 97 36 18 16.1 101.05     LegendNANA
19:00 Legend Double Dagger 1.0 0.0 93 2 18 16.1 101.13     LegendNANA
20:00 Legend Double Dagger -0.1 -0.8 95 1 17 16.1 101.22   -5 LegendNANA
21:00 Legend Double Dagger -0.8 -0.9 99 3 22 16.1 101.27   -7 LegendNANA
22:00 Legend Double Dagger -1.5 -1.5 100 2 18 1.2 101.33   -7 Freezing Rain,Snow
23:00 Legend Double Dagger -1.8 -1.8 100 36 18 1.6 101.41   -7 Fog

Notes on Data Quality.

Legend

  • E = Estimated
  • M = Missing
  • NA = Not Available
  • ‡ = Partner data that is not subject to review by the National Climate Archives
Date modified: